星链-2482 (STARLINK-2482 )

导读

STARLINK-2482是美国太空探索技术公司于2021年4月7日发射的星链卫星,隶属于星链互联网卫星星座项目。星链项目旨在通过大规模低轨卫星星座,为全球用户提供高速低延迟的互联网接入服务。截至当前,该卫星已在轨运行近五年,是星链星座中承担全球网络覆盖的成员之一。

基本信息
目录编号:
48139
目录名称:
STARLINK-2482
国际标识:
2021-027AZ
轨道中心:
EARTH
卫星名称:
星链-2482
卫星全名:
星链-2482 (STARLINK-2482 )
卫星状态:
在轨 (已飞行1898 天)
发射日期:
2021-04-07 UTC
国别 :
美国 (US)
星等 :
--
轨道信息
数据来源 国际轨道数据 AOE轨道数据
星历时间 2026-06-18T06:35:53+0800
17小时前
查看轨道信息
2026-06-17T22:00:00+0800
1天前
查看轨道信息
半长轴 6848.865km 6848.906km
偏心率 0.0001018 0.0001269
轨道倾角 53.159° 53.159°
近地点辐角 87.137° 83.978°
升交点赤经 46.347° 48.020°
平近点角 272.974° 99.578°
近地点 470.03km 469.899km
远地点 471.426km 471.639km
周期 94.013分钟 94.014分钟
每日圈数 15.317043 15.316903
详细信息
固有亮度:
5
最大亮度:
2.5
卫星平台:
Starlink V1.0
覆盖范围:
全球
运营商:
太空探索技术公司
运营商所在国:
美国
制造商(研发单位):
太空探索技术公司
制造商所在国:
美国
使用方式:
暂无
卫星简介
星链(Starlink)计划是由太空探索技术公司(SpaceX)提出的一个巨型低轨卫星互联网星座项目,计划在2019年至2024年间在太空搭建由约1.2万颗卫星组成的“星链”网络,其中1584颗将部署在地球上空550千米处的近地轨道,并从2020年开始工作。该卫星仍在工作。
2D轨道图
3D轨道图
轨道高度分析图
轨道倾角分析图
轨道综合分析图
查看轨道综合分析图